{"data":{"norad_id":66184,"intl_designator":"2025-243H","name":"STARLINK-35317","alt_names":[],"object_type":"PAYLOAD","status":"ACTIVE","operator":null,"country":"US","launch_date":"2025-10-26","launch_site_code":"AFETR","launch_vehicle":null,"mission":null,"orbit_class":"UNKNOWN","rcs_meters":null,"size_class":null,"mass_kg":null,"dimensions":null,"purposes":["comms"],"wikipedia_slug":null,"has_3d_model":false,"image_url":null,"decayed_at":null,"tle_current":{"epoch":"2026-05-24T23:41:48.210720Z","epoch_age_seconds":76981,"freshness":"FRESH","line1":"1 66184U 25243H   26144.98736355  .00015376  00000+0  52997-3 0  9990","line2":"2 66184  53.1562 250.9755 0001001  61.5016 298.6086 15.30213183 32330","mean_motion":15.30213183,"eccentricity":0.0001001,"inclination_deg":53.1562,"raan_deg":250.9755,"arg_perigee_deg":61.5016,"mean_anomaly_deg":298.6086,"bstar":0.00052997,"rev_number":3233,"period_min":94.104534975765,"perigee_km":474.48969103813,"apogee_km":475.8617242422,"semimajor_km":6853.3127076402,"source":"CELESTRAK","updated_at":"2026-05-25T13:38:21.076856Z"}}}